SCP
0 0 0 0 0 0 0 0 0 0 0 0 0 0 0 0 0 0 0 0 0 0 0 0 0 0 0 0 0 0 0 0 0 0 0 0 0 0 0 0 0 0 0
0 0 0 0 0 0 0 0 0 0 0 0 0 0 0 0 0 0 0 0 0 0 0 0 0 0 0 0 0 0 0 0 0 0 0 0 0 0 0 0 0 0 0
0 0 0 0 0 0 0 0 0 0 0 0 0 0 0 0 0 0 0 0 0 0 0 0 0 0 0 0 0 0 0 0 0 0 0 0 0 0 0 0 0 0 0
0 0 0 0 0 0 0 0 0 0 0 0 0 0 0 0 0 0 0 0 0 0 0 0 0 0 0 0 0 0 0 0 0 0 0 0 0 0 0 0 0 0 0
0 0 0 0 0 0 0 0 0 0 0 0 0 0 0 0 0 0 0 0 0 0 0 0 0 0 0 0 0 0 0 0 0 0 0 0 0 0 0 0 0 0 0
0 0 0 0 0 0 0 0 0 0 0 0 0 0 0 0 0 0 0 0 0 0 0 0 0 0 0 0 0 0 0 0 0 0 0 0 0 0 0 0 0 0 0
0 0 0 0 0 0 0 0 0 0 0 0 0 0 0 0 0 0 0 0 0 0 0 0 0 0 0 0 0 0 0 0 0 0 0 0 0 0 0 0 0 0 0
0 0 0 0 0 0 0 0 0 0 0 0 0 0 0 0 0 0 0 0 0 0 0 0 0 0 0 0 0 0 0 0 0 0 0 0 0 0 0 0 0 0 0
0 0 0 0 0 0 0 0 0 0 0 0 0 0 0 0 0 0 0 0 0 0 0 0 0 0 0 0 0 0 0 0 0 0 0 0 0 0 0 0 0 0 0
0 0 0 0 0 0 0 0 0 0 0 0 0 0 0 0 0 0 0 0 0 0 0 0 0 0 0 0 0 0 0 0 0 0 0 0 0 0 0 0 0 0 0
0 0 0 0 0 0 0 0 0 0 0 0 0 0 0 0 0 0 0 0 0 0 0 0 0 0 0 0 0 0 0 0 0 0 0 0 0 0 0 0 0 0 0
0 0 0 0 0 0 0 0 0 0 0 0 0 0 0 0 0 0 0 0 0 0 0 0 0 0 0 0 0 0 0 0 0 0 0 0 0 0 0 0 0 0 0
0 0 0 0 0 0 0 0 0 0 0 0 0 0 0 0 0 0 0 0 0 0 0 0 0 0 0 0 0 0 0 0 0 0 0 0 0 0 0 0 0 0 0
0 0 0 0 0 0 0 0 0 0 0 0 0 0 0 0 0 0 0 0 0 0 0 0 0 0 0 0 0 0 0 0 0 0 0 0 0 0 0 0 0 0 0
0 0 0 0 0 0 0 0 0 0 0 0 0 0 0 0 0 0 0 0 0 0 0 0 0 0 0 0 0 0 0 0 0 0 0 0 0 0 0 0 0 0 0
0 0 0 0 0 0 0 0 0 0 0 0 0 0 0 0 0 0 0 0 0 0 0 0 0 0 0 0 0 0 0 0 0 0 0 0 0 0 0 0 0 0 0
0 0 0 0 0 0 0 0 0 0 0 0 0 0 0 0 0 0 0 0 0 0 0 0 0 0 0 0 0 0 0 0 0 0 0 0 0 0 0 0 0 0 0
0 0 0 0 0 0 0 0 0 0 0 0 0 0 0 0 0 0 0 0 0 0 0 0 0 0 0 0 0 0 0 0 0 0 0 0 0 0 0 0 0 0 0
0 0 0 0 0 0 0 0 0 0 0 0 0 0 0 0 0 0 0 0 0 0 0 0 0 0 0 0 0 0 0 0 0 0 0 0 0 0 0 0 0 0 0
0 0 0 0 0 0 0 0 0 0 0 0 0 0 0 0 0 0 0 0 0 0 0 0 0 0 0 0 0 0 0 0 0 0 0 0 0 0 0 0 0 0 0
0 0 0 0 0 0 0 0 0 0 0 0 0 0 0 0 0 0 0 0 0 0 0 0 0 0 0 0 0 0 0 0 0 0 0 0 0 0 0 0 0 0 0
0 0 0 0 0 0 0 0 0 0 0 0 0 0 0 0 0 0 0 0 0 0 0 0 0 0 0 0 0 0 0 0 0 0 0 0 0 0 0 0 0 0 0
0 0 0 0 0 0 0 0 0 0 0 0 0 0 0 0 0 0 0 0 0 0 0 0 0 0 0 0 0 0 0 0 0 0 0 0 0 0 0 0 0 0 0
0 0 0 0 0 0 0 0 0 0 0 0 0 0 0 0 0 0 0 0 0 0 0 0 0 0 0 0 0 0 0 0 0 0 0 0 0 0 0 0 0 0 0
0 0 0 0 0 0 0 0 0 0 0 0 0 0 0 0 0 0 0 0 0 0 0 0 0 0 0 0 0 0 0 0 0 0 0 0 0 0 0 0 0 0 0
0 0 0 0 0 0 0 0 0 0 0 0 0 0 0 0 0 0 0 0 0 0 0 0 0 0 0 0 0 0 0 0 0 0 0 0 0 0 0 0 0 0 0
Wind_Speed
4 4 3 2 4 3 3 3 4 4 5 5 5 6 6 7 6 6 3 6 6 6 7 6 7 9 8 8 8 7 7 7 8 8 9 9 9 9 9 9 9 10 10
4 4 4 3 4 4 4 4 5 4 4 4 5 5 6 6 7 6 5 6 8 7 7 7 8 9 9 9 9 9 9 8 8 8 9 10 9 9 9 9 10 10 10
5 5 4 4 4 4 5 4 5 4 4 4 5 5 5 6 6 7 6 4 5 8 8 7 8 9 9 9 10 9 9 9 9 8 9 10 9 9 9 9 10 10 9
6 5 4 4 4 4 4 3 4 4 4 4 4 3 4 4 6 6 5 6 5 4 7 8 7 8 9 9 10 10 10 10 9 9 9 10 10 10 10 10 10 10 10
6 5 4 4 5 4 4 4 3 4 4 3 4 4 3 3 4 5 6 6 5 5 4 6 7 7 8 9 9 10 10 10 10 10 10 10 10 10 10 10 10 10 10
6 5 4 5 5 3 3 4 4 3 4 3 4 3 2 3 3 3 4 4 4 5 4 5 6 7 8 8 9 9 10 11 11 11 11 11 11 11 11 10 10 10 10
6 5 5 5 4 4 4 4 4 4 3 3 3 3 3 3 2 2 3 3 4 3 4 4 4 4 6 9 9 9 10 11 11 11 12 12 11 11 11 11 11 11 10
5 5 5 4 3 3 4 4 3 3 3 2 3 3 3 4 3 2 2 2 3 2 3 4 5 5 5 5 7 9 8 9 11 12 12 12 12 12 12 11 12 12 11
5 5 5 5 4 4 3 4 4 4 3 2 2 2 2 2 1 2 2 2 2 2 3 3 5 5 5 4 5 9 8 8 9 12 12 12 12 12 12 12 12 12 11
5 4 5 5 4 4 4 4 3 3 4 3 2 2 2 2 2 1 2 2 1 2 2 3 4 5 5 4 4 5 8 7 8 10 11 12 12 13 13 13 12 12 12
4 4 4 4 4 3 3 4 3 4 3 3 2 2 2 2 3 2 2 1 1 2 2 3 3 3 4 4 4 6 7 7 7 8 9 10 12 13 13 13 13 13 13
3 4 4 4 4 3 3 3 3 4 3 3 3 3 2 2 2 2 2 2 1 1 2 2 2 2 3 3 5 6 7 7 7 7 8 8 9 11 13 13 14 14 14
4 5 5 4 4 4 3 3 3 3 3 4 4 3 3 3 3 3 3 2 2 1 1 2 2 2 3 3 3 6 7 7 7 7 7 8 8 9 10 12 14 14 14
5 5 5 4 4 4 3 2 3 3 3 3 4 3 3 3 3 2 3 2 2 2 2 2 1 2 2 2 2 5 6 8 8 7 7 8 9 9 9 11 12 13 13
4 5 5 4 4 3 3 3 3 3 3 3 3 3 3 2 2 2 3 3 3 2 2 1 1 1 1 2 3 5 6 7 8 8 8 7 8 9 10 10 11 11 11
5 5 4 4 3 2 2 2 3 2 3 2 2 3 3 2 2 2 3 3 3 3 2 1 1 1 2 2 3 4 5 7 8 8 8 8 8 8 9 10 10 10 10
4 4 4 4 4 3 2 1 2 2 3 3 3 3 3 3 2 2 2 3 3 3 3 2 2 2 2 2 2 3 4 5 5 9 9 9 9 9 9 10 11 11 11
4 4 4 3 3 3 3 2 2 2 2 3 3 3 3 2 3 3 3 3 3 3 3 3 2 2 3 2 3 4 3 4 4 7 9 9 9 9 9 10 10 11 11
4 3 3 3 3 3 3 2 2 1 1 1 2 2 2 3 3 2 3 3 3 3 3 3 3 2 2 2 2 3 3 3 4 5 8 10 10 9 9 10 10 10 11
3 3 3 3 3 3 3 3 2 2 1 1 1 2 2 2 2 2 3 3 3 3 3 4 3 2 2 2 2 2 2 3 3 4 4 5 7 10 11 11 11 11 11
3 3 3 3 3 3 3 4 3 2 2 1 1 1 1 1 2 2 2 2 3 3 3 3 3 3 2 2 2 2 2 2 3 3 3 4 5 6 8 10 12 12 12
3 3 3 3 3 3 4 5 5 2 1 1 1 1 0 2 2 3 3 3 3 3 3 3 3 4 4 3 2 3 2 3 3 2 3 4 4 5 5 6 8 10 12
2 3 3 3 3 3 3 4 5 4 2 2 1 1 1 0 2 2 3 5 4 4 5 5 5 5 5 3 4 5 4 4 4 2 2 4 4 5 5 4 7 9 11
2 2 3 3 2 2 3 4 5 4 2 1 1 2 1 1 1 2 2 3 3 3 4 5 5 5 5 4 4 5 4 4 4 3 3 4 4 4 4 4 8 10 10
2 2 2 2 2 1 2 4 7 2 2 1 1 2 2 1 3 3 3 3 3 2 3 4 4 5 5 5 5 4 4 4 4 4 3 4 3 3 4 5 5 9 10
2 2 2 2 3 3 3 4 7 3 2 1 1 0 2 2 3 4 4 3 3 2 2 2 4 5 6 6 7 7 5 5 4 3 3 3 3 2 3 3 3 4 6
Wind_Direction
309 309 296 302 295 296 280 274 269 261 249 241 242 242 246 239 240 239 201 179 223 238 245 231 211 202 200 197 194 188 189 186 182 177 171 164 162 160 158 156 153 150 148
312 309 300 300 300 299 298 286 274 269 259 246 247 245 247 251 243 235 236 194 204 224 238 235 214 201 202 199 196 193 191 186 183 179 174 169 169 167 163 161 160 157 154
313 309 308 306 304 297 288 284 284 277 264 247 237 239 240 244 251 243 236 237 210 202 215 227 215 200 201 201 198 194 189 186 185 182 176 172 169 168 166 164 162 162 160
316 312 307 307 308 302 294 285 278 274 268 260 246 235 238 232 241 246 242 230 227 217 197 203 209 200 201 201 199 195 190 189 186 185 179 172 169 170 168 166 167 166 165
315 312 311 309 310 303 296 292 289 284 278 272 258 236 236 239 242 240 241 237 224 222 213 172 195 199 199 201 198 195 193 190 188 187 185 178 173 172 171 171 170 169 169
316 311 300 303 306 297 294 291 291 281 280 276 265 251 230 232 235 243 244 232 233 224 219 199 192 190 194 197 198 197 196 194 192 190 189 184 179 176 176 177 175 173 173
315 308 302 305 303 300 298 293 291 277 268 275 265 242 214 208 220 224 236 232 224 227 223 210 211 202 188 190 195 200 201 198 195 193 192 188 183 182 181 181 181 181 181
321 307 303 299 293 289 286 287 283 286 277 259 268 259 224 189 194 203 210 219 227 214 228 221 213 206 210 189 176 188 199 201 198 195 196 192 185 184 185 188 188 188 186
325 313 307 303 298 289 285 281 274 269 275 261 260 275 266 232 182 175 199 214 215 220 220 230 225 212 203 195 179 182 189 197 198 199 198 195 190 189 189 192 192 191 190
331 321 307 300 298 295 285 274 266 259 258 257 244 257 281 327 276 197 178 186 220 232 234 229 227 221 208 198 183 165 176 189 196 200 201 199 195 193 193 196 195 195 193
336 327 316 308 304 296 289 284 279 266 253 257 259 251 245 242 256 267 227 196 221 228 241 237 224 225 216 208 195 172 172 187 192 198 205 206 202 199 199 200 199 198 198
335 341 325 311 304 297 283 276 269 259 258 255 255 252 250 250 244 249 252 239 241 252 249 235 223 214 217 213 201 154 175 190 196 198 201 207 208 206 205 206 205 202 202
339 343 331 318 314 303 288 273 263 257 249 249 251 253 253 253 257 257 255 249 254 268 251 229 216 206 212 219 193 164 189 194 201 202 202 203 207 210 211 211 209 207 205
332 331 325 322 315 306 292 269 269 258 251 247 254 254 252 253 249 241 249 255 243 238 237 237 232 213 215 224 189 190 196 189 198 203 203 203 205 209 212 212 211 210 209
321 324 323 324 323 311 297 273 256 258 252 246 253 248 247 248 248 249 243 242 253 248 235 207 215 209 236 235 189 215 213 181 193 202 204 206 210 210 211 210 209 208 210
325 323 325 333 332 323 307 285 267 270 256 242 248 255 252 247 241 244 242 245 246 254 253 260 267 265 252 248 216 231 219 182 200 203 205 207 210 213 213 209 207 208 210
325 327 335 336 338 341 334 303 276 259 255 250 239 242 243 248 243 235 232 237 238 237 242 257 266 274 264 248 234 233 222 218 205 198 203 206 209 213 214 213 211 209 210
331 333 339 339 349 344 337 331 311 275 255 257 256 248 240 232 240 239 235 232 230 232 238 241 246 258 269 258 247 238 233 232 230 191 198 206 211 214 213 214 213 211 209
335 337 342 343 349 345 340 331 317 305 290 274 267 256 244 232 236 232 234 236 234 233 237 238 241 258 260 249 246 243 238 243 245 203 199 206 209 213 214 215 214 212 212
331 334 340 337 344 343 337 341 345 348 345 327 301 289 260 243 252 247 238 238 237 235 236 239 234 234 245 246 237 238 245 237 244 233 217 211 206 211 216 216 216 215 216
321 336 336 336 348 346 357 347 345 351 354 344 330 319 318 338 325 298 285 259 242 235 232 241 242 239 239 240 240 247 255 265 263 243 232 223 214 220 215 215 217 217 217
314 326 322 332 342 359 11 342 318 319 331 326 319 322 210 204 213 233 263 283 286 264 257 249 247 247 246 245 248 246 253 255 256 225 241 245 235 233 228 225 210 211 216
299 307 312 315 322 9 7 338 310 300 306 326 328 321 313 262 234 227 202 214 227 232 254 266 263 263 260 248 242 240 239 245 258 263 264 260 242 243 238 223 197 208 215
295 296 314 314 319 357 1 330 305 276 285 289 290 294 280 296 342 305 251 241 250 238 239 248 257 267 272 269 252 253 257 258 263 247 239 256 247 247 242 232 196 205 212
288 287 305 310 304 329 19 330 304 286 278 285 301 325 319 312 51 316 270 258 259 254 207 233 283 293 298 277 265 250 234 237 253 247 228 247 259 262 256 243 209 200 211
267 281 294 300 306 321 36 345 309 288 290 293 298 250 70 356 16 320 281 277 280 292 291 254 242 238 247 230 224 238 238 239 251 252 216 229 251 249 257 238 231 212 214